Regional Weather Roundup
Issued by NWS

Home | Current Version | Previous Version | Text Only | Print | Product List | Glossary On
Versions: 1 2 3 4 5 6 7 8 9 10 11 12 13 14 15 16 17 18 19 20 21 22 23 24 25 26 27 28 29 30 31 32 33 34 35 36 37 38 39 40 41 42 43 44 45 46 47 48 49 50
000
ASUS43 KTOP 201708
RWRKS

WEATHER ROUNDUP FOR KANSAS
NATIONAL WEATHER SERVICE GOODLAND KS
1100 AM CST SAT DEC 20 2014

NOTE:  "FAIR" INDICATES FEW OR NO CLOUDS BELOW 12,000 FEET WITH NO
SIGNIFICANT WEATHER AND/OR OBSTRUCTIONS TO VISIBILITY.

KSZ001>006-013>018-027>032-041>047-201800-
NORTHWEST KANSAS

CITY           SKY/WX    TMP DP  RH WIND       PRES   REMARKS
GOODLAND       MOSUNNY   45  32  60 W7        30.03S
HAYS           SUNNY     37  28  70 S3        30.08F
HILL CITY      SUNNY     40  30  67 SW3       30.06F
RUSSELL        SUNNY     39  35  86 SW9       30.07F
$$

KSZ061>065-074>080-084>089-201800-
SOUTHWEST KANSAS

CITY           SKY/WX    TMP DP  RH WIND       PRES   REMARKS
DODGE CITY     SUNNY     37  33  85 SW13      30.08F WCI  29
ELKHART          N/A    N/A N/A N/A MISG        N/A
GARDEN CITY    SUNNY     36  32  85 SW9       30.07R
GREAT BEND     SUNNY     39  34  81 SW8       30.11S
LIBERAL        CLOUDY    32  28  86 SW12      30.13R VSB 1/4 WCI  23
PRATT          SUNNY     43  39  87 SW14      30.13S
$$

KSZ066>073-081>083-090>101-201800-
SOUTHEAST KANSAS

CITY           SKY/WX    TMP DP  RH WIND       PRES   REMARKS
CHANUTE        MOSUNNY   42  34  73 S13       30.20F
COFFEYVILLE    PTSUNNY   44  34  67 SW13      30.23S
HUTCHINSON     SUNNY     44  38  79 S10       30.14R
MEDICINE LODGE   N/A     45  39  79 SW9       30.14F
NEWTON         SUNNY     43  36  75 SW14      30.16R
PARSONS        PTSUNNY   43  34  70 S7        30.23F
WICHITA INTL   MOSUNNY   44  37  76 S13       30.16S
WICHITA JABRA  SUNNY     43  37  79 S14       30.16S
WICHITA MCCONL SUNNY     44  37  79 S13       30.17R
WINFIELD       MOSUNNY   43  36  76 S13       30.20S
$$

KSZ007>012-019>026-033>040-048>060-102>105-201800-
NORTHEAST KANSAS

CITY           SKY/WX    TMP DP  RH WIND       PRES   REMARKS
CONCORDIA      SUNNY     34  31  88 W7        30.10S
EMPORIA        MOSUNNY   39  35  86 S14       30.15F WCI  31
LAWRENCE       SUNNY     42  34  73 S10       30.17F
MANHATTAN      SUNNY     42  36  79 SW13      30.13S
MARYSVILLE     CLOUDY    34  32  93 SW8       30.12S FOG
OLATHE IND     SUNNY     40  35  83 S10       30.17F WCI  33
OLATHE EXE     SUNNY     39  35  86 S10       30.17F WCI  32
SALINA         SUNNY     40  36  86 S10       30.12F WCI  33
TOPEKA BILLARD SUNNY     42  35  76 SW9       30.16S
TOPEKA FORBES  MOSUNNY   41  34  76 S14       30.15S
$$


USA.gov is the U.S. government's official web portal to all federal, state and local government web resources and services.